Flag Weather past 2 weeks in Foz do Iguaçu, Paraná, Brazil

Now
88 °F

Scattered clouds.


Feels Like: 96 °F
Forecast: 64 / 92 °F
Wind: 9 mph from Northeast

Location: Foz Do Iguacu Aeroporto

Current Time: Nov 24, 2014 at 1:36:32 PM

Latest Report: Nov 24, 2014 at 1:00 PM


Visibility: N/A

Pressure: 29.89 "Hg

Humidity: 62%

Dew point: 73 °F

Location of Foz do IguaçuLocation

Historic Weather in Foz do Iguaçu — Graph

°F

Foz do Iguaçu temperature yesterday

Maximum temperature yesterday: 88 °F (at 4:00 PM)
Minimum temperature yesterday: 57 °F (at 6:00 AM)
Average temperature yesterday: 73 °F

Past Weeks' High & Low Weather Summary

 TemperatureHumidityPressure
High91 °F (Nov 9, 4:00 PM)100% (Nov 12, 1:00 AM)30.09 "Hg (Nov 12, 1:00 AM)
Low34 °F (Nov 21, 11:00 PM)31% (Nov 18, 3:00 PM)29.71 "Hg (Nov 11, 11:00 PM)
Average73 °F74%29.88 "Hg
* Reported Nov 9 12:00 Noon — Nov 24 12:00 Noon, Foz do Iguaçu, Weather by CustomWeather, © 2014

Note: Actual official high and low records may vary slightly from our data, if they occured in-between our weather recording intervals... More about our weather records

Advertising

Foz do Iguaçu weather history for previous 24 hours

 ConditionsComfort  
Time TempWeatherWind HumidityBarometerVisibility
12:00 PM
Nov 24
86 °FScattered clouds.7 mph66%29.89 "HgN/A
11:00 AM84 °FPassing clouds.5 mph70%29.89 "HgN/A
10:00 AM82 °FSunny.6 mph66%29.89 "Hg10 mi
9:00 AM75 °FSunny.3 mph74%29.89 "Hg10 mi
8:00 AM68 °FSunny.6 mph88%29.86 "Hg10 mi
7:00 AM66 °FSunny.3 mph88%29.83 "Hg10 mi
6:00 AM66 °FClear.7 mph94%29.80 "Hg10 mi
5:00 AM64 °FClear.3 mph94%29.80 "Hg10 mi
4:00 AM66 °FClear.7 mph94%29.80 "Hg10 mi
3:00 AM63 °FClear.2 mph100%29.80 "Hg10 mi
2:00 AM64 °FClear.No wind94%29.83 "Hg10 mi
1:00 AM66 °FClear.No wind88%29.83 "Hg10 mi
12:00 AM68 °FClear.3 mph88%29.86 "Hg10 mi
11:00 PM
Nov 23
66 °FClear.1 mph88%29.86 "Hg10 mi
10:00 PM70 °FClear.2 mph83%29.86 "Hg10 mi
9:00 PM72 °FClear.3 mph78%29.83 "Hg10 mi
8:00 PM81 °FSunny.5 mph54%29.83 "Hg10 mi
7:00 PM84 °FSunny.7 mph51%29.83 "Hg10 mi
6:00 PM88 °FSunny.5 mph35%29.83 "Hg10 mi
5:00 PM88 °FSunny.3 mph33%29.86 "Hg10 mi
4:00 PM88 °FSunny.3 mph35%29.89 "Hg10 mi
3:00 PM86 °FPassing clouds.5 mph38%29.92 "HgN/A
2:00 PM84 °FPassing clouds.3 mph43%29.95 "HgN/A
1:00 PM82 °FSunny.5 mph51%29.95 "Hg10 mi
Weather by CustomWeather, © 2014

See weather overviewHow to use our weather pages